P/2018 P3 ( PanSTARRS )

Japanese version
Home page
Updated on October 28, 2018

---------------------------------------------------------------------

* Profile

Discovery Date August 8, 2018
Magnitude 21.0 mag
Discoverer Pan-STARRS 1 telescope (Haleakala)

* Pictures

* Orbital Elements

Epoch 2018 Oct. 9.0 TT = JDT 2458400.5
T 2018 Oct.  9.44669 TT                                 MPCW
q   1.7565377            (2000.0)            P               Q
n   0.18899780     Peri.  305.87535     +0.98766268     -0.08259027
a   3.0072178      Node    59.21143     +0.13585796     +0.87444578
e   0.4158928      Incl.    8.90947     -0.07787842     +0.47804124
P   5.21
From 135 observations 2018 Aug. 8-Oct. 14, mean residual 0".4.

* Magnitudes Graph

        m1 = -31.7 + 5 log d + 200 log r  [ ,0]  (             - 2018 Nov.  7)
        m1 =   9.9 + 5 log d +  30 log r  [0, ]  (2018 Nov.  7 -             )

---------------------------------------------------------------------

The orbital elements are published on M.P.E.C. 2018-U70.
The magnitudes graphs are made with Comet for Windows.

---------------------------------------------------------------------

Copyright(C) Seiichi Yoshida (comet@aerith.net). All rights reserved.